Regional Weather Roundup
Issued by NWS Albany, NY

Home | Current Version | Previous Version | Text Only | Print | Product List | Glossary On
Versions: 1 2 3 4 5 6 7 8 9 10 11 12 13 14 15 16 17 18 19 20 21 22 23 24 25 26 27 28 29 30 31 32 33 34 35 36 37 38 39 40 41 42 43 44 45 46 47 48 49 50
000
ASUS41 KALY 270410
RWRALY

NEW YORK STATE HOURLY WEATHER ROUNDUP
NATIONAL WEATHER SERVICE ALBANY NY
1200 AM EDT FRI MAR 27 2015

NOTE: "FAIR" INDICATES FEW OR NO CLOUDS BELOW 12,000 FEET WITH NO
SIGNIFICANT WEATHER AND/OR NO OBSTRUCTIONS TO VISIBILITY.

NYZ032-033-038>043-046>054-057>066-NYZ062>081-270500-
EAST


CITY           SKY/WX    TMP DP  RH WIND       PRES   REMARKS
ALBANY         CLOUDY    37  34  89 W6        29.74R WCI  32
GLENS FALLS    CLOUDY    36  34  92 W6        29.73R FOG     WCI  31
POUGHKEEPSIE   CLOUDY    41  37  86 N8        29.69F
MONTGOMERY     LGT RAIN  41  39  93 NE5       29.68S
WHITE PLAINS   CLOUDY    42  39  89 N12       29.64S
ISLIP          CLOUDY    46  45  96 N10       29.61F
NEW YORK CITY  CLOUDY    45  41  86 N9        29.64F
CENTRAL PARK   LGT RAIN  44  41  89 NE9       29.67F
$$

NYZ005>009-017-018-044>046-055-056-270500-
CENTRAL


CITY           SKY/WX    TMP DP  RH WIND       PRES   REMARKS
FULTON         CLOUDY    34  32  92 CALM      29.78F FOG
SYRACUSE       CLOUDY    34  32  92 SW3       29.79F
ROME           CLOUDY    32  32 100 W5        29.79F FOG     WCI  27
ELMIRA         CLOUDY    34  34 100 CALM      29.79S
BINGHAMTON     CLOUDY    33  31  92 NW13      29.75R WCI  24
MONTICELLO     CLOUDY    36  34  93 NW7       29.69F WCI  30
$$

NYZ026>034-041>043-270500-
NORTH


CITY           SKY/WX    TMP DP  RH WIND       PRES   REMARKS
WATERTOWN      CLOUDY    34  32  92 SW6       29.77F FOG     WCI  29
FORT DRUM      NOT AVBL
MASSENA        CLOUDY    34  34 100 SW8       29.76F FOG     WCI  27
SARANAC LAKE   CLOUDY    32  31  96 SW5       29.69F WCI  27
PLATTSBURGH    CLOUDY    33  33 100 CALM      29.74F FOG
$$

NYZ001>004-010>016-019>021-270500-
WEST


CITY           SKY/WX    TMP DP  RH WIND       PRES   REMARKS
NIAGARA FALLS  CLOUDY    34  30  85 W8        29.82S WCI  27
BUFFALO        CLOUDY    33  31  92 SW9       29.82S FOG     WCI  25
DUNKIRK        CLOUDY    33  32  96 SW9       29.85F FOG     WCI  25
JAMESTOWN      CLOUDY    32  28  86 SW9       29.82S WCI  24
WELLSVILLE     CLOUDY    32  29  88 NW12      29.77F WCI  23
ROCHESTER      CLOUDY    35  33  92 W6        29.80F WCI  30
PENN YAN       CLOUDY    36  32  85 S5        29.79S WCI  32
$$

             KEY
       WCI = WIND CHILL INDEX
       VSB = VISIBILITY
       HX  = HEAT INDEX
$$



USA.gov is the U.S. government's official web portal to all federal, state and local government web resources and services.